Location: Helsinki
(60.1699°N, 24.9384°E)
Time: 06:11:50
(UTC+03:00)

ESTCUBE 1 - Visible Passes

Search period start: 23 September 2023 00:00
Search period end: 03 October 2023 00:00
Orbit: 639 x 653 km, 97.9° (Epoch: 22 September)

Date Brightness Start Highest point End Pass type
(mag) Time Alt. Az. Time Alt. Az. Time Alt. Az.
23 Sep ? 00:09:39 21° W 00:09:42 21° W 00:13:08 10° NW visible
23 Sep ? 21:19:54 22° E 21:21:28 28° NE 21:25:15 10° N visible
23 Sep ? 22:57:37 67° WSW 22:57:49 68° WSW 23:02:18 10° NNW visible
24 Sep ? 00:35:20 14° W 00:35:21 14° W 00:37:45 10° NW visible
24 Sep ? 20:09:15 10° ENE 20:10:57 12° NE 20:12:40 10° NNE visible
24 Sep ? 21:45:35 34° E 21:46:33 39° ENE 21:50:44 10° N visible
24 Sep ? 23:23:18 44° W 23:23:18 44° W 23:27:31 10° NNW visible
25 Sep ? 20:33:32 11° ENE 20:35:52 16° NE 20:38:34 10° N visible
25 Sep ? 22:11:15 54° E 22:11:44 57° ENE 22:16:08 10° NNW visible
25 Sep ? 23:48:58 29° W 23:48:58 29° W 23:52:37 10° NNW visible
26 Sep ? 20:59:12 18° E 21:00:50 21° NE 21:04:12 10° N visible
26 Sep ? 22:36:55 86° E 22:36:58 86° ENE 22:41:28 10° NNW visible
27 Sep ? 00:14:38 20° W 00:14:38 20° W 00:17:31 10° NW visible
27 Sep ? 21:24:52 27° E 21:25:52 29° NE 21:29:44 10° N visible
27 Sep ? 23:02:34 61° W 23:02:34 61° W 23:06:44 10° NNW visible
28 Sep ? 00:40:17 13° WNW 00:40:17 13° WNW 00:41:59 10° NW visible
28 Sep ? 20:13:22 10° ENE 20:15:18 13° NE 20:17:15 10° NNE visible
28 Sep ? 21:50:31 40° ENE 21:50:57 42° ENE 21:55:11 10° N visible
28 Sep ? 23:28:14 39° WNW 23:28:14 39° WNW 23:31:55 10° NNW visible
29 Sep ? 20:38:27 14° ENE 20:40:12 17° NE 20:43:04 10° N visible
29 Sep ? 22:16:10 62° ENE 22:16:10 62° ENE 22:20:32 10° NNW visible
29 Sep ? 23:53:52 26° WNW 23:53:52 26° WNW 23:56:57 10° NNW visible
30 Sep ? 21:04:06 21° ENE 21:05:10 23° NE 21:08:39 10° N visible
30 Sep ? 22:41:48 72° NNW 22:41:48 72° NNW 22:45:51 10° NNW visible
01 Oct ? 00:19:31 18° WNW 00:19:31 18° WNW 00:21:47 10° NW visible
01 Oct ? 19:54:16 10° NE 19:54:45 10° NE 19:55:13 10° NNE visible
01 Oct ? 21:29:44 30° ENE 21:30:11 31° ENE 21:34:08 10° N visible
01 Oct ? 23:07:26 50° WNW 23:07:26 50° WNW 23:11:05 10° NNW visible
02 Oct ? 00:45:09 12° WNW 00:45:09 12° WNW 00:46:06 10° WNW visible
02 Oct ? 20:17:39 11° ENE 20:19:34 13° NE 20:21:44 10° NNE visible
02 Oct ? 21:55:22 44° ENE 21:55:22 44° ENE 21:59:33 10° N visible
02 Oct ? 23:33:04 33° WNW 23:33:04 33° WNW 23:36:14 10° NNW visible
